Weather in Moravske Budejovice

Czech Republic     49°03′06″N   15°48′32″E
temp.,
°C
wind,
m/s
gust,
m/s
humid.,
%
clouds,
%
prec.,
mm/h
press.,
hPa
HPBL,
m
11 may, tue
tue1123:00+14e5128297 0.0 1010308
02:00+13e611875 0.0 1009320
05:00+11ese612845 0.0 1008328
08:00+13ese69731 0.0 1008448
11:00+18se56650 0.0 1008626
14:00+22se68540 0.0 10061136
17:00+22se813601 0.0 1004816
20:00+18se816665 0.0 1004470
12 may, wed
wed1223:00+15sse36706 0.0 100597
02:00+12w499474 0.0 1007305
05:00+10wnw359674 0.0 1008124
08:00+13wnw3589100 0.0 1007290
11:00+13wsw4590100 0.4 1007347
14:00+14wnw448791 0.9 1006455
17:00+13w558999 0.4 1005365
20:00+11w6992100 0.4 1005340
13 may, thu
thu1323:00+10wsw4794100 0.3 1004323
02:00+10wsw51094100 1.1 1003496
05:00+10w61192100 0.3 1002566
08:00+10wsw61089100 0.3 1002590
11:00+10wsw7985100 0.0 1003687
14:00+10wsw71082100 0.1 1003823
17:00+9w71181100 0.0 1004873
20:00+8w71178100 0.0 1005922
14 may, fri
fri1423:00+8w71181100 0.0 1006942
02:00+7w71282100 0.0 1006859
05:00+8w51178100 0.0 10061202
08:00+10w6127449 0.0 10071217
11:00+13w576387 0.0 10081387
14:00+13nw456296 0.1 1008992
17:00+15ssw226197 0.2 1008873
20:00+11wnw117789 0.4 100911
15 may, sat
sat1523:00+10n1183100 0.0 101011
02:00+9n2287100 0.0 101134
05:00+9nw2285100 0.0 101235
08:00+10nnw247895 0.0 1013333
11:00+14nnw236454 0.1 10131243
14:00+16n4455100 0.0 10121587
17:00
20:00+12n227367 0.1 101313